GW3838 Weather Reports


time (UTC)temp
F
wind
direction
speed
knots
gust
knots
rain 1hr
in
rain 24hr
in
rain mn
in
humidity
%
barometer
mb
20260906105758 76 101 0.9 1.7 0.00 0.00 0.00 95 1017.4
20260906105254 76 83 0.0 0.9 0.00 0.00 0.00 95 1017.6
20260906104749 76 83 0.0 1.7 0.00 0.00 0.00 95 1017.3
20260906104247 76 85 0.0 0.0 0.00 0.00 0.00 95 1017.6
20260906103746 76 84 0.9 1.7 0.00 0.00 0.00 95 1017.5
20260906103240 76 95 0.9 0.9 0.00 0.00 0.00 95 1017.4
20260906102736 76 80 1.7 1.7 0.00 0.00 0.00 96 1017.2
20260906102234 76 108 0.0 0.9 0.00 0.00 0.00 96 1017.0
20260906101729 76 120 0.0 0.9 0.00 0.00 0.00 96 1016.9
20260906101219 76 118 0.9 0.9 0.00 0.00 0.00 96 1017.2
20260906100714 76 95 0.9 1.7 0.00 0.00 0.00 97 1017.2
20260906100209 76 95 0.9 0.9 0.00 0.00 0.00 97 1017.3
20260906095703 76 129 0.9 1.7 0.00 0.00 0.00 98 1017.3
20260906095159 76 108 0.9 2.6 0.00 0.00 0.00 98 1017.3
20260906094657 76 44 0.9 1.7 0.00 0.00 0.00 98 1017.4
20260906094153 76 111 0.0 1.7 0.00 0.00 0.00 99 1017.2
20260906093650 76 152 0.0 0.0 0.00 0.00 0.00 99 1017.2
20260906093150 76 151 0.0 0.9 0.00 0.00 0.00 99 1017.0
20260906092644 76 151 0.9 1.7 0.00 0.00 0.00 99 1017.1
20260906092139 76 151 1.7 1.7 0.00 0.00 0.00 99 1016.9
20260906091635 76 169 0.0 0.9 0.00 0.00 0.00 99 1017.0
20260906091131 76 169 0.0 0.9 0.00 0.00 0.00 99 1017.0
20260906090626 76 169 1.7 1.7 0.00 0.00 0.00 99 1017.1
20260906090121 76 169 0.0 0.0 0.00 0.00 0.00 99 1016.9
20260906085620 76 169 0.0 0.0 0.00 0.00 0.00 99 1017.0
20260906085114 76 169 0.0 0.0 0.00 0.00 0.00 99 1016.7
20260906084609 76 169 0.9 0.9 0.00 0.00 0.00 99 1016.7
20260906084108 76 169 0.0 0.0 0.00 0.00 0.00 98 1016.8
20260906083604 76 169 0.0 0.0 0.00 0.00 0.00 98 1016.7
20260906083103 76 169 0.0 0.9 0.00 0.00 0.00 98 1016.5
20260906082559 77 169 0.9 0.9 0.00 0.00 0.00 98 1016.5
20260906082054 77 169 0.9 0.9 0.00 0.00 0.00 98 1016.6
20260906081550 77 169 0.9 0.9 0.00 0.00 0.00 98 1016.9
20260906081045 77 169 0.9 0.9 0.00 0.00 0.00 98 1016.8
20260906080542 77 169 0.0 0.0 0.00 0.00 0.00 98 1016.9
20260906080037 77 169 0.0 0.0 0.00 0.00 0.00 98 1016.6
20260906075531 77 169 0.0 0.0 0.00 0.00 0.00 98 1016.7
20260906075026 77 169 0.0 0.9 0.00 0.00 0.00 98 1016.5
20260906074521 77 169 0.0 0.0 0.00 0.00 0.00 98 1016.7
20260906074020 77 169 0.0 0.0 0.00 0.00 0.00 98 1016.6
20260906073515 77 169 0.9 0.9 0.00 0.00 0.00 98 1016.9
20260906073011 76 169 0.0 0.0 0.00 0.00 0.00 98 1016.6
20260906072505 77 169 0.0 0.0 0.00 0.00 0.00 98 1016.8
20260906072002 77 169 0.0 0.9 0.00 0.00 0.00 98 1016.7
20260906071458 77 169 0.9 1.7 0.00 0.00 0.00 98 1016.8
20260906070953 77 169 0.0 0.0 0.00 0.00 0.00 97 1016.6
20260906070448 77 169 0.0 0.0 0.00 0.00 0.00 97 1016.9
20260906065943 77 169 0.0 0.0 0.00 0.00 0.00 97 1016.8
20260906065438 77 169 0.9 0.9 0.00 0.00 0.00 97 1016.6
20260906064933 77 169 0.9 0.9 0.00 0.00 0.00 97 1016.9
20260906064430 77 169 0.0 0.0 0.00 0.00 0.00 97 1016.9
20260906063924 77 169 0.0 0.0 0.00 0.00 0.00 96 1017.0
20260906063419 77 169 1.7 1.7 0.00 0.00 0.00 96 1017.2
20260906062915 77 169 0.0 0.9 0.00 0.00 0.00 96 1017.1
20260906062415 78 169 0.0 0.9 0.00 0.00 0.00 96 1017.2
20260906061909 78 169 0.0 0.0 0.00 0.00 0.00 95 1017.2
20260906061400 78 169 0.0 0.0 0.00 0.00 0.00 95 1017.1
20260906060854 78 169 0.0 0.9 0.00 0.00 0.00 95 1017.1
20260906060352 78 169 0.0 0.0 0.00 0.00 0.00 94 1017.3
20260906055848 79 169 0.0 0.0 0.00 0.00 0.00 94 1017.2
20260906055343 79 169 0.0 0.0 0.00 0.00 0.00 94 1017.3
20260906054838 78 169 0.0 0.9 0.00 0.00 0.00 94 1017.3
20260906054333 78 169 0.0 0.9 0.00 0.00 0.00 95 1017.4
20260906053830 78 169 0.0 0.0 0.00 0.00 0.00 95 1017.4
20260906053325 78 169 0.0 0.9 0.00 0.00 0.00 96 1017.5
20260906052820 78 169 0.0 0.0 0.00 0.00 0.00 96 1017.5
20260906052317 78 169 0.0 0.9 0.00 0.00 0.00 96 1017.7
20260906051814 78 169 0.9 0.9 0.00 0.00 0.00 97 1017.7
20260906051313 78 169 0.0 0.9 0.00 0.00 0.00 97 1017.4
20260906050809 78 169 0.9 0.9 0.00 0.00 0.00 97 1017.5
20260906050304 78 169 0.0 0.0 0.00 0.00 0.00 97 1017.6
20260906045802 78 169 0.0 0.9 0.00 0.00 0.00 97 1017.6
20260906045257 78 169 0.9 0.9 0.00 0.00 0.00 96 1017.7
20260906044754 78 169 0.0 0.0 0.00 0.00 0.00 96 1017.9
20260906044248 78 169 0.0 0.9 0.00 0.00 0.00 96 1017.5
20260906043744 78 169 0.9 0.9 0.00 0.00 0.00 96 1017.7
20260906043240 78 169 0.0 0.0 0.00 0.00 0.00 96 1017.7
20260906042739 78 169 0.0 0.0 0.00 0.00 0.00 96 1017.9
20260906042238 78 169 0.9 0.9 0.00 0.00 0.00 96 1017.8
20260906041734 78 169 0.9 0.9 0.00 0.00 0.00 96 1017.9
20260906041229 79 169 0.0 0.0 0.00 0.00 0.00 96 1018.0
20260906040725 79 169 0.9 0.9 0.00 0.00 0.00 95 1017.9
20260906040220 79 169 0.0 0.0 0.00 0.00 0.00 95 1018.0
20260906035715 79 169 0.0 0.0 0.00 0.00 0.00 95 1018.0
20260906035210 79 169 0.0 0.0 0.00 0.00 0.00 95 1018.1
20260906034704 79 169 0.9 0.9 0.00 0.00 0.00 95 1018.0
20260906034159 79 169 0.0 0.0 0.00 0.00 0.00 95 1018.0
20260906033655 79 169 0.0 0.0 0.00 0.00 0.00 95 1018.1
20260906033156 79 169 0.0 0.0 0.00 0.00 0.00 95 1018.2
20260906032652 79 169 0.0 0.0 0.00 0.00 0.00 95 1018.1
20260906032146 79 169 0.0 0.9 0.00 0.00 0.00 95 1018.1
20260906031641 79 169 0.9 0.9 0.00 0.00 0.00 95 1018.2
20260906031137 79 169 0.0 0.0 0.00 0.00 0.00 94 1018.5
20260906030636 79 169 0.0 0.0 0.00 0.00 0.00 94 1018.4
20260906030132 79 171 1.7 1.7 0.00 0.00 0.00 94 1018.2
20260906025631 80 154 1.7 1.7 0.00 0.00 0.00 93 1018.3
20260906025130 80 128 0.0 0.0 0.00 0.00 0.00 93 1018.3
20260906024625 80 128 0.0 0.9 0.00 0.00 0.00 92 1018.4
20260906024119 80 126 0.0 0.0 0.00 0.00 0.00 93 1018.3
20260906023615 80 126 0.0 0.9 0.00 0.00 0.00 92 1018.3
20260906023109 80 108 0.9 0.9 0.00 0.00 0.00 91 1018.2
20260906022605 81 115 0.9 0.9 0.00 0.00 0.00 91 1018.1
20260906022101 81 176 1.7 1.7 0.00 0.00 0.00 90 1018.2
20260906021556 81 177 0.0 0.0 0.00 0.00 0.00 90 1018.1
20260906021055 81 178 0.9 1.7 0.00 0.00 0.00 90 1018.0
20260906020554 81 176 0.0 0.9 0.00 0.00 0.00 90 1017.9
20260906020054 81 176 0.0 0.0 0.00 0.00 0.00 89 1018.0
20260906015553 82 174 0.9 0.9 0.00 0.00 0.00 89 1017.9
20260906015048 82 163 0.0 0.9 0.00 0.00 0.00 88 1017.8
20260906014542 82 163 0.0 0.9 0.00 0.00 0.00 88 1017.6
20260906014038 82 163 0.0 0.9 0.00 0.00 0.00 87 1017.4
20260906013533 82 160 0.9 0.9 0.00 0.00 0.00 87 1017.3
20260906013029 82 173 1.7 2.6 0.00 0.00 0.00 87 1017.6
20260906012524 82 175 0.9 2.6 0.00 0.00 0.00 88 1017.4
20260906012023 82 168 1.7 2.6 0.00 0.00 0.00 88 1017.2
20260906011520 82 187 2.6 2.6 0.00 0.00 0.00 88 1017.1
20260906011019 82 171 1.7 2.6 0.00 0.00 0.00 88 1017.0
20260906010515 82 154 0.0 0.9 0.00 0.00 0.00 87 1017.1
20260906010011 82 154 0.0 0.0 0.00 0.00 0.00 87 1017.3
20260906005509 83 154 0.0 0.9 0.00 0.00 0.00 87 1017.1
20260906005008 83 168 1.7 2.6 0.00 0.00 0.00 86 1017.1
20260906004503 82 162 0.9 4.3 0.00 0.00 0.00 88 1017.1
20260906003958 81 176 2.6 2.6 0.00 0.00 0.00 90 1017.1
20260906003453 82 164 1.7 1.7 0.00 0.00 0.00 90 1017.0
20260906002949 82 145 0.0 1.7 0.00 0.00 0.00 90 1017.0
20260906002449 82 152 1.7 2.6 0.00 0.00 0.00 89 1017.1
20260906001944 83 138 0.0 0.9 0.00 0.00 0.00 87 1017.2
20260906001439 83 138 0.0 0.0 0.00 0.00 0.00 87 1017.4
20260906000929 83 138 0.0 0.0 0.00 0.00 0.00 87 1017.5
20260906000425 84 138 0.0 0.0 0.00 0.00 0.00 86 1017.3
20260905235919 84 138 0.0 0.0 0.00 0.00 0.00 85 1017.4
20260905235413 84 138 0.0 0.9 0.00 0.00 0.00 84 1017.6
20260905234908 84 138 0.0 0.9 0.00 0.00 0.00 84 1017.3
20260905234403 84 144 0.0 0.9 0.00 0.00 0.00 85 1017.2
20260905233858 85 143 0.0 0.9 0.00 0.00 0.00 84 1017.3
20260905233353 85 142 0.0 0.9 0.00 0.00 0.00 83 1017.5
20260905232847 86 151 1.7 1.7 0.00 0.00 0.00 82 1017.5
20260905232343 86 165 0.9 1.7 0.00 0.00 0.00 80 1017.3
20260905231838 87 156 0.9 0.9 0.00 0.00 0.00 78 1017.5
20260905231333 87 172 1.7 1.7 0.00 0.00 0.00 77 1017.5
20260905230830 87 162 0.9 1.7 0.00 0.00 0.00 77 1017.4
20260905230327 87 156 0.9 1.7 0.00 0.00 0.00 77 1017.5
20260905225826 88 172 1.7 2.6 0.00 0.00 0.00 76 1017.4
20260905225321 88 181 2.6 2.6 0.00 0.00 0.00 76 1017.1
20260905224816 88 201 1.7 1.7 0.00 0.00 0.00 76 1017.0
20260905224312 88 190 2.6 4.3 0.00 0.00 0.00 76 1017.0
20260905223807 88 157 1.7 2.6 0.00 0.00 0.00 75 1016.9
20260905223304 89 195 2.6 2.6 0.00 0.00 0.00 74 1016.8
20260905222759 89 188 1.7 1.7 0.00 0.00 0.00 73 1016.7
20260905222258 89 174 2.6 2.6 0.00 0.00 0.00 72 1016.8
20260905221754 90 184 2.6 2.6 0.00 0.00 0.00 72 1016.7
20260905221251 91 181 0.9 1.7 0.00 0.00 0.00 70 1016.7
20260905220746 91 241 1.7 2.6 0.00 0.00 0.00 69 1016.8
20260905220242 91 225 1.7 4.3 0.00 0.00 0.00 69 1016.8
20260905215741 92 161 2.6 4.3 0.00 0.00 0.00 68 1016.8
20260905215237 92 200 2.6 2.6 0.00 0.00 0.00 67 1017.0
20260905214733 91 190 1.7 5.2 0.00 0.00 0.00 69 1016.8
20260905214229 92 202 2.6 4.3 0.00 0.00 0.00 67 1017.1
20260905213723 94 255 3.5 5.2 0.00 0.00 0.00 65 1017.1
20260905213220 93 162 0.0 1.7 0.00 0.00 0.00 65 1016.9
20260905212714 93 239 1.7 2.6 0.00 0.00 0.00 65 1016.6
20260905212213 93 160 2.6 2.6 0.00 0.00 0.00 67 1017.2
20260905211708 93 217 5.2 5.2 0.00 0.00 0.00 65 1017.2
20260905211203 91 171 1.7 6.1 0.00 0.00 0.00 68 1017.1
20260905210655 92 158 2.6 5.2 0.00 0.00 0.00 69 1017.1
20260905210155 92 190 1.7 2.6 0.00 0.00 0.00 67 1016.9
20260905205654 93 170 2.6 5.2 0.00 0.00 0.00 66 1017.0
20260905205153 94 173 2.6 2.6 0.00 0.00 0.00 67 1016.7
20260905204653 92 30 1.7 2.6 0.00 0.00 0.00 66 1017.0
20260905204148 92 137 0.9 2.6 0.00 0.00 0.00 67 1016.8
20260905203643 93 68 3.5 4.3 0.00 0.00 0.00 66 1016.9
20260905203138 92 164 1.7 2.6 0.00 0.00 0.00 68 1017.0
20260905202634 92 160 0.9 2.6 0.00 0.00 0.00 65 1016.9
20260905202129 92 257 2.6 6.1 0.00 0.00 0.00 66 1017.1
20260905201624 93 169 2.6 4.3 0.00 0.00 0.00 65 1017.3
20260905201124 92 237 2.6 2.6 0.00 0.00 0.00 66 1017.0
20260905200620 92 212 4.3 6.1 0.00 0.00 0.00 66 1017.3
20260905200114 93 352 4.3 7.0 0.00 0.00 0.00 67 1017.1
20260905195613 92 170 0.9 2.6 0.00 0.00 0.00 67 1017.2
20260905195108 92 242 2.6 2.6 0.00 0.00 0.00 68 1017.4
20260905194603 92 162 1.7 1.7 0.00 0.00 0.00 68 1017.4
20260905194102 93 290 2.6 2.6 0.00 0.00 0.00 68 1017.4
20260905193556 93 182 6.1 7.0 0.00 0.00 0.00 68 1017.6
20260905193052 93 206 2.6 4.3 0.00 0.00 0.00 67 1017.7
20260905192548 92 50 1.7 1.7 0.00 0.00 0.00 67 1017.7
20260905192044 92 172 2.6 2.6 0.00 0.00 0.00 66 1018.0
20260905191542 92 252 1.7 2.6 0.00 0.00 0.00 68 1018.0
20260905191041 91 193 3.5 4.3 0.00 0.00 0.00 68 1017.9
20260905190540 89 140 0.9 4.3 0.00 0.00 0.00 75 1018.0
20260905190034 91 175 3.5 5.2 0.00 0.00 0.00 70 1017.6
20260905185533 91 202 4.3 5.2 0.00 0.00 0.00 67 1018.0
20260905185032 91 185 3.5 7.0 0.00 0.00 0.00 69 1018.2
20260905184527 92 197 4.3 5.2 0.00 0.00 0.00 68 1018.2
20260905184025 91 255 2.6 2.6 0.00 0.00 0.00 69 1018.2
20260905183520 90 144 0.0 1.7 0.00 0.00 0.00 70 1018.5
20260905183015 91 175 1.7 4.3 0.00 0.00 0.00 68 1018.3
20260905182515 91 273 3.5 5.2 0.00 0.00 0.00 69 1018.6
20260905182009 91 266 4.3 5.2 0.00 0.00 0.00 69 1018.7
20260905181504 91 214 1.7 4.3 0.00 0.00 0.00 68 1018.6
20260905181003 90 164 3.5 4.3 0.00 0.00 0.00 69 1018.8
20260905180458 90 177 2.6 4.3 0.00 0.00 0.00 72 1018.7
20260905175954 89 161 0.9 2.6 0.00 0.00 0.00 75 1018.8
20260905175453 90 181 2.6 6.1 0.00 0.00 0.00 74 1019.1
20260905174949 89 193 4.3 5.2 0.00 0.00 0.00 74 1019.2
20260905174443 88 155 0.0 0.9 0.00 0.00 0.00 74 1019.1
20260905173939 87 190 0.9 1.7 0.00 0.00 0.00 74 1019.3
20260905173436 87 88 0.9 1.7 0.00 0.00 0.00 75 1019.3
20260905172931 87 170 0.0 1.7 0.00 0.00 0.00 78 1019.5
20260905172429 87 88 1.7 1.7 0.00 0.00 0.00 78 1019.5
20260905171925 88 160 1.7 2.6 0.00 0.00 0.00 77 1019.6
20260905171421 88 110 0.9 0.9 0.00 0.00 0.00 75 1019.7
20260905170917 88 151 2.6 2.6 0.00 0.00 0.00 75 1019.6
20260905170413 88 187 4.3 6.1 0.00 0.00 0.00 75 1019.3
20260905165912 88 172 3.5 5.2 0.00 0.00 0.00 78 1019.6
20260905165408 88 221 3.5 6.1 0.00 0.00 0.00 75 1019.7
20260905164903 87 183 5.2 7.0 0.00 0.00 0.00 76 1019.6
20260905164357 88 121 1.7 2.6 0.00 0.00 0.00 76 1019.9
20260905163852 88 168 0.9 2.6 0.00 0.00 0.00 75 1019.9
20260905163349 87 210 0.9 1.7 0.00 0.00 0.00 78 1020.3
20260905162845 85 244 1.7 4.3 0.00 0.00 0.00 81 1020.4
20260905162344 87 274 1.7 2.6 0.00 0.00 0.00 79 1020.5
20260905161839 87 137 0.9 2.6 0.00 0.00 0.00 77 1020.2
20260905161338 86 169 0.0 1.7 0.00 0.00 0.00 78 1020.4
20260905160837 85 301 1.7 2.6 0.00 0.00 0.00 81 1020.5
20260905160331 87 266 1.7 4.3 0.00 0.00 0.00 80 1020.5
20260905155825 86 179 0.9 2.6 0.00 0.00 0.00 80 1020.7
20260905155324 85 16 1.7 2.6 0.00 0.00 0.00 82 1020.4
20260905154819 85 310 2.6 5.2 0.00 0.00 0.00 82 1020.6
20260905154315 86 17 1.7 2.6 0.00 0.00 0.00 80 1020.4
20260905153810 85 119 0.9 4.3 0.00 0.00 0.00 82 1020.7
20260905153306 86 96 1.7 1.7 0.00 0.00 0.00 81 1020.6
20260905152800 83 84 0.9 1.7 0.00 0.00 0.00 85 1020.7
20260905152259 83 77 1.7 4.3 0.00 0.00 0.00 86 1020.8
20260905151800 84 278 3.5 5.2 0.00 0.00 0.00 85 1020.9
20260905151255 83 139 1.7 1.7 0.00 0.00 0.00 85 1020.8
20260905150750 82 171 0.9 1.7 0.00 0.00 0.00 85 1020.8
20260905150250 82 224 2.6 2.6 0.00 0.00 0.00 87 1020.8
20260905145747 82 114 0.9 2.6 0.00 0.00 0.00 87 1020.9
20260905145242 84 13 4.3 6.1 0.00 0.00 0.00 85 1020.9
20260905144741 84 280 1.7 1.7 0.00 0.00 0.00 84 1020.9
20260905144237 82 75 1.7 2.6 0.00 0.00 0.00 88 1020.8
20260905143735 81 114 0.9 1.7 0.00 0.00 0.00 89 1021.0
20260905143235 82 199 2.6 2.6 0.00 0.00 0.00 89 1020.9
20260905142733 81 62 1.7 4.3 0.00 0.00 0.00 89 1021.1
20260905142228 82 259 0.9 1.7 0.00 0.00 0.00 89 1021.2
20260905141724 81 233 1.7 1.7 0.00 0.00 0.00 89 1021.0
20260905141220 81 176 0.9 1.7 0.00 0.00 0.00 90 1020.9
20260905140715 81 278 1.7 2.6 0.00 0.00 0.00 89 1020.9
20260905140214 81 79 0.9 1.7 0.00 0.00 0.00 90 1021.1
20260905135709 80 130 0.9 1.7 0.00 0.00 0.00 91 1021.0
20260905135205 80 147 0.0 2.6 0.00 0.00 0.00 92 1021.4
20260905134704 80 209 1.7 1.7 0.00 0.00 0.00 94 1021.2
20260905134204 79 204 1.7 2.6 0.00 0.00 0.00 97 1021.1
20260905133659 78 123 0.0 1.7 0.00 0.00 0.00 99 1021.2
20260905133154 78 135 0.0 2.6 0.00 0.00 0.00 99 1021.1
20260905132653 77 291 1.7 4.3 0.00 0.00 0.00 99 1021.1
20260905132149 77 104 0.9 4.3 0.00 0.00 0.00 99 1021.0
20260905131643 77 22 1.7 2.6 0.00 0.00 0.00 99 1021.0
20260905131138 77 151 0.9 0.9 0.00 0.00 0.00 99 1021.0
20260905130633 77 131 0.0 0.9 0.00 0.00 0.00 99 1020.9
20260905130132 77 122 0.0 1.7 0.00 0.00 0.00 99 1021.1
20260905125626 77 160 0.9 1.7 0.00 0.00 0.00 99 1021.2
20260905125123 77 159 0.0 0.9 0.00 0.00 0.00 99 1021.2
20260905124619 77 78 0.0 0.9 0.00 0.00 0.00 99 1021.1
20260905124115 77 100 0.9 2.6 0.00 0.00 0.00 99 1021.0
20260905123610 77 149 0.0 0.0 0.00 0.00 0.00 99 1021.1
20260905123107 77 167 0.0 0.0 0.00 0.00 0.00 99 1020.9
20260905122606 77 168 0.0 0.0 0.00 0.00 0.00 99 1020.8
20260905122101 77 163 0.0 0.0 0.00 0.00 0.00 99 1020.8
20260905121555 77 163 0.0 0.0 0.00 0.00 0.00 99 1020.8
20260905121051 77 163 0.0 0.0 0.00 0.00 0.00 99 1021.1
20260905120550 77 161 0.0 0.0 0.00 0.00 0.00 99 1021.0
20260905120045 76 161 0.0 0.0 0.00 0.00 0.00 99 1020.7
20260905115544 76 161 0.0 0.0 0.00 0.00 0.00 99 1020.6
20260905115039 76 161 0.0 0.0 0.00 0.00 0.00 99 1020.7
20260905114538 76 161 0.0 0.0 0.00 0.00 0.00 99 1020.6
20260905114038 76 161 0.0 0.0 0.00 0.00 0.00 99 1020.8
20260905113532 76 161 0.0 0.0 0.00 0.00 0.00 99 1020.5
20260905113028 76 162 0.0 0.0 0.00 0.00 0.00 99 1020.5
20260905112523 76 162 0.0 0.0 0.00 0.00 0.00 99 1020.4
20260905112019 76 162 0.0 0.0 0.00 0.00 0.00 99 1020.3
20260905111513 76 162 0.0 0.0 0.00 0.00 0.00 99 1020.2
20260905111013 76 162 0.0 0.0 0.00 0.00 0.00 99 1020.5
20260905110512 76 162 0.0 0.0 0.00 0.00 0.00 99 1020.4